Insider Buying

 
Symbol Name Keyword
Filings for:
Note: This page automatically refreshes every three minutes.
  Symbol Owner Relationship Date Cost # Shares Value($) Total Shares Filing
Y! CWGL STEINBERG JOSEPH S Director Jan 24, 2020 $7.57 2,043 15,466 536,643 Jan 24, 2020, 07:32 PM
Y! CWGL Cumming John D. Director Jan 24, 2020 $7.57 200 1,514 308,207 Jan 24, 2020, 07:24 PM
Y! VEL Oltmann Christopher J Chief Accounting Officer Jan 24, 2020 $13.91 750 10,432 750 Jan 24, 2020, 06:32 PM
Y! ICMB Investcorp BDC Holdings Ltd 10% Owner Jan 24, 2020 $7.12 1,100 7,836 227,373 Jan 24, 2020, 05:49 PM
Y! ICMB Investcorp BDC Holdings Ltd 10% Owner Jan 23, 2020 $7.08 2,048 14,495 226,273 Jan 24, 2020, 05:49 PM
Y! ICMB Investcorp BDC Holdings Ltd 10% Owner Jan 22, 2020 $7.03 800 5,622 224,225 Jan 24, 2020, 05:49 PM
Y! TRN Boze Brandon B Director Jan 24, 2020 $20.75 74,535 1,546,601 25,476,929 Jan 24, 2020, 05:25 PM
Y! TRN Boze Brandon B Director Jan 23, 2020 $20.69 111,076 2,298,162 25,402,394 Jan 24, 2020, 05:25 PM
Y! TRN Boze Brandon B Director Jan 22, 2020 $20.51 92,787 1,903,061 25,291,318 Jan 24, 2020, 05:25 PM
Y! TLRS McDowell Donald James VP Corporate Development Mar 25, 2019 $0.08 225,000 18,000 411,600 Jan 24, 2020, 05:15 PM
Y! TLRS McDowell Donald James VP Corporate Development Jul 25, 2019 $0.08 250,000 20,000 661,600 Jan 24, 2020, 05:15 PM
Y! SYBT TASMAN NORMAN Director Jan 23, 2020 $39.92 58 2,315 69,779 Jan 24, 2020, 04:57 PM
Y! TLRS McDowell Donald James VP Corporate Development Feb 21, 2019 $0.09 500 44 186,600 Jan 24, 2020, 04:56 PM
Y! TLRS McDowell Donald James VP Corporate Development Feb 20, 2019 $0.09 1,000 86 186,100 Jan 24, 2020, 04:56 PM
Y! SYBT Schutte John Director Jan 23, 2020 $39.92 88 3,513 1,867 Jan 24, 2020, 04:55 PM
Y! SYBT Priebe Stephen M Director Jan 23, 2020 $39.92 98 3,912 17,790 Jan 24, 2020, 04:54 PM
Y! SYBT Brown J McCauley Director Jan 23, 2020 $39.92 49 1,956 2,649 Jan 24, 2020, 04:53 PM
Y! SYBT Bickel Paul J III Director Jan 23, 2020 $39.92 98 3,912 4,089 Jan 24, 2020, 04:52 PM
Y! TLRS McDowell Donald James VP Corporate Development Feb 19, 2019 $0.10 2,000 196 185,100 Jan 24, 2020, 04:51 PM
Y! TLRS McDowell Donald James VP Corporate Development Feb 15, 2019 $0.08 500 41 183,100 Jan 24, 2020, 04:51 PM
Y! TLRS McDowell Donald James VP Corporate Development Feb 14, 2019 $0.09 2,500 221 182,600 Jan 24, 2020, 04:44 PM
Y! TLRS McDowell Donald James VP Corporate Development Feb 13, 2019 $0.08 500 40 180,100 Jan 24, 2020, 04:44 PM
Y! TLRS McDowell Donald James VP Corporate Development Feb 08, 2019 $0.11 1,000 109 179,600 Jan 24, 2020, 04:37 PM
Y! TLRS McDowell Donald James VP Corporate Development Feb 07, 2019 $0.08 1,000 76 178,600 Jan 24, 2020, 04:37 PM
Y! TLRS McDowell Donald James VP Corporate Development Feb 06, 2019 $0.09 1,000 87 177,600 Jan 24, 2020, 04:25 PM
Y! TLRS McDowell Donald James VP Corporate Development Feb 05, 2019 $0.09 1,500 134 176,600 Jan 24, 2020, 04:25 PM
Y! TLRS McDowell Donald James VP Corporate Development Feb 04, 2019 $0.10 1,000 98 175,100 Jan 24, 2020, 04:25 PM
Y! TLRS McDowell Donald James VP Corporate Development Feb 01, 2019 $0.09 1,500 132 174,100 Jan 24, 2020, 04:16 PM
Y! TLRS McDowell Donald James VP Corporate Development Jan 31, 2019 $0.09 500 45 172,600 Jan 24, 2020, 04:16 PM
Y! PKD HIGHBRIDGE CAPITAL MANAGEMENT LLC 10% Owner Jan 23, 2020 $17.92 2,214 39,675 1,562,684 Jan 24, 2020, 04:12 PM
Y! PKD HIGHBRIDGE CAPITAL MANAGEMENT LLC 10% Owner Jan 22, 2020 $17.84 10,482 186,999 1,560,470 Jan 24, 2020, 04:12 PM
Y! TCON WIGGINS MARK C Chief Business Officer Jan 23, 2020 $4.02 5,000 20,103 5,000 Jan 24, 2020, 04:10 PM
Y! TLRS McDowell Donald James VP Corporate Development Jan 28, 2019 $0.08 1,000 82 171,100 Jan 24, 2020, 04:09 PM
Y! TLRS McDowell Donald James VP Corporate Development Jan 30, 2019 $0.08 500 42 172,100 Jan 24, 2020, 04:09 PM
Y! TLRS McDowell Donald James VP Corporate Development Jan 29, 2019 $0.10 500 48 171,600 Jan 24, 2020, 04:09 PM
Y! VISI GOODMAN BRUCE G Director Jan 23, 2020 $2.66 5,000 13,299 85,497 Jan 24, 2020, 04:06 PM
Y! TLRS McDowell Donald James VP Corporate Development Jan 25, 2019 $0.08 1,500 125 170,100 Jan 24, 2020, 04:02 PM
Y! TLRS McDowell Donald James VP Corporate Development Jan 24, 2019 $0.08 2,000 159 168,600 Jan 24, 2020, 03:56 PM
Y! TLRS McDowell Donald James VP Corporate Development Jan 23, 2019 $0.08 500 42 166,600 Jan 24, 2020, 03:56 PM
Y! TLRS McDowell Donald James VP Corporate Development Jan 22, 2019 $0.08 2,500 212 166,100 Jan 24, 2020, 03:56 PM
Y! PHD Saba Capital Management, L.P. 10% Owner Jan 22, 2020 $11.03 5,805 64,029 2,851,778 Jan 24, 2020, 03:56 PM
Y! PPR Saba Capital Management, L.P. 10% Owner Jan 22, 2020 $5.12 135,012 691,261 29,073,304 Jan 24, 2020, 03:53 PM
Y! PPR Saba Capital Management, L.P. 10% Owner Jan 23, 2020 $5.13 402,824 2,066,487 29,476,128 Jan 24, 2020, 03:53 PM
Y! FBSS Bogan Marc J President and CEO Jan 23, 2020 $20.39 330 6,729 14,566 Jan 24, 2020, 03:42 PM
Y! TLRS McDowell Donald James VP Corporate Development Jan 17, 2019 $0.10 2,500 240 162,100 Jan 24, 2020, 03:11 PM
Y! TLRS McDowell Donald James VP Corporate Development Jan 18, 2019 $0.09 1,500 136 163,600 Jan 24, 2020, 03:11 PM
Y! TLRS McDowell Donald James VP Corporate Development Jan 16, 2019 $0.09 500 47 159,600 Jan 24, 2020, 03:02 PM
Y! TLRS McDowell Donald James VP Corporate Development Jan 15, 2019 $0.12 500 60 159,100 Jan 24, 2020, 03:02 PM
Y! TLRS McDowell Donald James VP Corporate Development Jan 14, 2019 $0.09 2,500 227 158,600 Jan 24, 2020, 03:02 PM
Y! CNBKA EVANGELISTA PAUL A Executive Vice President Jan 23, 2020 $155.85 2 312 2,111 Jan 24, 2020, 02:57 PM
Y! FAST JACKSON DARREN R Director Jan 23, 2020 $35.57 18,000 640,231 48,000 Jan 24, 2020, 02:56 PM
Y! CNBKA SLOANE BARRY R CEO and President Jan 23, 2020 $155.85 1 156 1,687 Jan 24, 2020, 02:55 PM
Y! TLRS McDowell Donald James VP Corporate Development Jan 10, 2019 $0.09 2,500 224 155,100 Jan 24, 2020, 02:52 PM
Y! TLRS McDowell Donald James VP Corporate Development Jan 09, 2019 $0.09 500 47 152,600 Jan 24, 2020, 02:52 PM
Y! TLRS McDowell Donald James VP Corporate Development Jan 08, 2019 $0.08 2,000 159 152,100 Jan 24, 2020, 02:52 PM
Y! TLRS McDowell Donald James VP Corporate Development Jan 11, 2019 $0.09 1,000 93 156,100 Jan 24, 2020, 02:52 PM
Y! GRWC Olson James John Chairman Jan 13, 2020 $0.05 1,000,000 50,000 4,381,654 Jan 24, 2020, 12:37 PM
Y! GRWC Hall Trevor Keegan CFO and Treasurer Jan 13, 2020 $0.05 1,000,000 50,000 1,210,000 Jan 24, 2020, 12:27 PM
Y! ENDV Collier Alan Brian CEO Jan 02, 2020 $1.75 100 175 25,719 Jan 24, 2020, 12:09 PM
Y! ENDV Collier Alan Brian CEO Dec 30, 2019 $2.25 100 225 25,619 Jan 24, 2020, 12:09 PM
Y! ENDV Collier Alan Brian CEO Dec 20, 2019 $1.50 100 150 25,519 Jan 24, 2020, 11:56 AM
Y! ENDV Collier Alan Brian CEO Dec 10, 2019 $0.00 3,000 8 25,415,997 Jan 24, 2020, 11:56 AM
Y! ENDV Collier Alan Brian CEO Dec 16, 2019 $0.00 500 1 25,418,597 Jan 24, 2020, 11:56 AM
Y! ENDV Collier Alan Brian CEO Dec 12, 2019 $0.00 1,000 2 25,418,097 Jan 24, 2020, 11:56 AM
Y! ENDV Collier Alan Brian CEO Dec 11, 2019 $0.00 1,100 2 25,417,097 Jan 24, 2020, 11:56 AM
Y! TPL HORIZON KINETICS ASSET MANAGEMENT LLC 10% Owner Jan 23, 2020 $759.00 135 102,465 317,084 Jan 24, 2020, 11:49 AM
Y! OPK FROST PHILLIP MD ET AL CEO & Chairman Jan 23, 2020 $1.63 50,000 81,500 168,991,991 Jan 24, 2020, 07:30 AM
Y! CWGL STEINBERG JOSEPH S Director Jan 23, 2020 $7.56 1,999 15,112 534,600 Jan 23, 2020, 09:09 PM
Y! CWGL STEINBERG JOSEPH S Director Jan 22, 2020 $7.83 2,361 18,487 532,601 Jan 23, 2020, 09:09 PM
Y! CWGL STEINBERG JOSEPH S Director Jan 21, 2020 $7.84 2,400 18,816 530,240 Jan 23, 2020, 09:09 PM
Y! CWGL Cumming John D. Director Jan 22, 2020 $7.81 400 3,124 308,007 Jan 23, 2020, 08:57 PM
Y! CWGL Cumming John D. Director Jan 21, 2020 $7.85 1,230 9,655 307,607 Jan 23, 2020, 08:57 PM
Y! ENDV Collier Alan Brian Ceo Dec 30, 2019 $2.25 100 225 25,418,797 Jan 23, 2020, 08:38 PM
Y! ENDV Collier Alan Brian Ceo Jan 02, 2020 $1.75 100 175 25,418,897 Jan 23, 2020, 08:38 PM
Y! AMAR CHEN STEPHEN T President,Chairman,CEO,CFO Jan 21, 2020 $0.33 1,000 330 761,000 Jan 23, 2020, 07:36 PM
Y! SXC SWEETNAM JAMES E Director Nov 19, 2019 $4.71 5,300 24,963 26,694 Jan 23, 2020, 07:19 PM
Y! TLRS Mathewson David C. Director Nov 09, 2018 $0.08 625,000 50,000 1,250,000 Jan 23, 2020, 06:38 PM
Y! TLRS Mathewson David C. Director May 08, 2018 $0.08 625,000 50,000 625,000 Jan 23, 2020, 06:38 PM
Y! TLRS Mathewson David C. Director Mar 25, 2019 $0.08 500,000 40,000 2,000,000 Jan 23, 2020, 06:38 PM
Y! TLRS Mathewson David C. Director Dec 06, 2018 $0.08 250,000 20,000 1,500,000 Jan 23, 2020, 06:38 PM
Y! PBF Inversora Carso, S.A. de C.V. 10% Owner Jan 22, 2020 $29.63 127,000 3,762,997 20,832,330 Jan 23, 2020, 06:33 PM
Y! PBF Inversora Carso, S.A. de C.V. 10% Owner Jan 21, 2020 $29.76 85,000 2,529,932 20,705,330 Jan 23, 2020, 06:33 PM
Y! TLRS Osterberg Steven A. President Mar 29, 2019 $0.08 175,000 14,000 821,660 Jan 23, 2020, 06:12 PM
Y! TLRS Osterberg Steven A. President Nov 09, 2018 $0.08 187,500 15,000 646,660 Jan 23, 2020, 06:12 PM
Y! TLRS Osterberg Steven A. President May 08, 2018 $0.08 125,000 10,000 459,160 Jan 23, 2020, 06:12 PM
Y! FROPX BATES SHILOH R Chief Investment Officer Jan 21, 2020 $19.67 58 1,141 17,428 Jan 23, 2020, 05:58 PM
Y! APTX Sherman Rachel E. Director Jan 22, 2020 $4.79 2,174 10,413 2,174 Jan 23, 2020, 05:44 PM
Y! PENC BERMAN RONALD J Director Jan 22, 2020 $0.65 14,706 9,559 332,172 Jan 23, 2020, 05:14 PM
Y! MCHX Edenbrook Capital, LLC 10% Owner Jan 22, 2020 $3.50 7,378 25,823 5,361,017 Jan 23, 2020, 04:50 PM
Y! MCHX Edenbrook Capital, LLC 10% Owner Jan 23, 2020 $3.45 20,417 70,516 5,381,434 Jan 23, 2020, 04:50 PM
Y! CMD Mann Jeffrey Z SVP, General Counsel Jan 23, 2020 $67.30 750 50,475 7,132 Jan 23, 2020, 04:27 PM
Y! BATRA GAMCO INVESTORS, INC. ET AL 10% Owner Jan 22, 2020 $29.25 1,000 29,250 30,000 Jan 23, 2020, 04:04 PM
Y! ASRV WISE ROBERT L Director Jan 15, 2020 $4.17 166 692 160,804 Jan 23, 2020, 03:27 PM
Y! TRN Boze Brandon B Director Jan 21, 2020 $20.37 101,967 2,077,068 25,198,531 Jan 23, 2020, 03:18 PM
Y! TRN Boze Brandon B Director Jan 17, 2020 $20.93 83,924 1,756,529 25,096,564 Jan 23, 2020, 03:18 PM
Y! TRN Boze Brandon B Director Jan 16, 2020 $20.98 142 2,979 25,012,640 Jan 23, 2020, 03:18 PM
Y! GLGI KRUGER WARREN F CEO & President Jan 17, 2020 $0.45 10,000 4,500 9,702,426 Jan 23, 2020, 02:50 PM
Y! SLCT HARRIS OSCAR N Director Aug 08, 2019 $10.81 1,200 12,972 323,592 Jan 23, 2020, 02:45 PM
Y! UBOH ROACH DAVID P Director Feb 17, 2019 $22.42 131 2,937 5,628 Jan 23, 2020, 02:27 PM
Y! XSILX Funderburk Noah Affiliated Person Jan 08, 2020 $10.11 5,935 60,003 60,000 Jan 23, 2020, 02:01 PM
Next : Last
 
Symbol Name Keyword
Filings for:
Note: This page automatically refreshes every three minutes.
Desktop Version
Symbol Owner Relationship Date Value($)
CWGL STEINBERG JOSEPH S Director Jan 24, 2020 15,466
CWGL Cumming John D. Director Jan 24, 2020 1,514
VEL Oltmann Christopher J Chief Accounting Officer Jan 24, 2020 10,432
ICMB Investcorp BDC Holdings Ltd 10% Owner Jan 24, 2020 7,836
ICMB Investcorp BDC Holdings Ltd 10% Owner Jan 23, 2020 14,495
ICMB Investcorp BDC Holdings Ltd 10% Owner Jan 22, 2020 5,622
TRN Boze Brandon B Director Jan 24, 2020 1,546,601
TRN Boze Brandon B Director Jan 23, 2020 2,298,162
TRN Boze Brandon B Director Jan 22, 2020 1,903,061
TLRS McDowell Donald James VP Corporate Development Mar 25, 2019 18,000
TLRS McDowell Donald James VP Corporate Development Jul 25, 2019 20,000
SYBT TASMAN NORMAN Director Jan 23, 2020 2,315
TLRS McDowell Donald James VP Corporate Development Feb 21, 2019 44
TLRS McDowell Donald James VP Corporate Development Feb 20, 2019 86
SYBT Schutte John Director Jan 23, 2020 3,513
SYBT Priebe Stephen M Director Jan 23, 2020 3,912
SYBT Brown J McCauley Director Jan 23, 2020 1,956
SYBT Bickel Paul J III Director Jan 23, 2020 3,912
TLRS McDowell Donald James VP Corporate Development Feb 19, 2019 196
TLRS McDowell Donald James VP Corporate Development Feb 15, 2019 41
TLRS McDowell Donald James VP Corporate Development Feb 14, 2019 221
TLRS McDowell Donald James VP Corporate Development Feb 13, 2019 40
TLRS McDowell Donald James VP Corporate Development Feb 08, 2019 109
TLRS McDowell Donald James VP Corporate Development Feb 07, 2019 76
TLRS McDowell Donald James VP Corporate Development Feb 06, 2019 87
TLRS McDowell Donald James VP Corporate Development Feb 05, 2019 134
TLRS McDowell Donald James VP Corporate Development Feb 04, 2019 98
TLRS McDowell Donald James VP Corporate Development Feb 01, 2019 132
TLRS McDowell Donald James VP Corporate Development Jan 31, 2019 45
PKD HIGHBRIDGE CAPITAL MANAGEMENT LLC 10% Owner Jan 23, 2020 39,675
PKD HIGHBRIDGE CAPITAL MANAGEMENT LLC 10% Owner Jan 22, 2020 186,999
TCON WIGGINS MARK C Chief Business Officer Jan 23, 2020 20,103
TLRS McDowell Donald James VP Corporate Development Jan 28, 2019 82
TLRS McDowell Donald James VP Corporate Development Jan 30, 2019 42
TLRS McDowell Donald James VP Corporate Development Jan 29, 2019 48
VISI GOODMAN BRUCE G Director Jan 23, 2020 13,299
TLRS McDowell Donald James VP Corporate Development Jan 25, 2019 125
TLRS McDowell Donald James VP Corporate Development Jan 24, 2019 159
TLRS McDowell Donald James VP Corporate Development Jan 23, 2019 42
TLRS McDowell Donald James VP Corporate Development Jan 22, 2019 212
PHD Saba Capital Management, L.P. 10% Owner Jan 22, 2020 64,029
PPR Saba Capital Management, L.P. 10% Owner Jan 22, 2020 691,261
PPR Saba Capital Management, L.P. 10% Owner Jan 23, 2020 2,066,487
FBSS Bogan Marc J President and CEO Jan 23, 2020 6,729
TLRS McDowell Donald James VP Corporate Development Jan 17, 2019 240
TLRS McDowell Donald James VP Corporate Development Jan 18, 2019 136
TLRS McDowell Donald James VP Corporate Development Jan 16, 2019 47
TLRS McDowell Donald James VP Corporate Development Jan 15, 2019 60
TLRS McDowell Donald James VP Corporate Development Jan 14, 2019 227
CNBKA EVANGELISTA PAUL A Executive Vice President Jan 23, 2020 312
FAST JACKSON DARREN R Director Jan 23, 2020 640,231
CNBKA SLOANE BARRY R CEO and President Jan 23, 2020 156
TLRS McDowell Donald James VP Corporate Development Jan 10, 2019 224
TLRS McDowell Donald James VP Corporate Development Jan 09, 2019 47
TLRS McDowell Donald James VP Corporate Development Jan 08, 2019 159
TLRS McDowell Donald James VP Corporate Development Jan 11, 2019 93
GRWC Olson James John Chairman Jan 13, 2020 50,000
GRWC Hall Trevor Keegan CFO and Treasurer Jan 13, 2020 50,000
ENDV Collier Alan Brian CEO Jan 02, 2020 175
ENDV Collier Alan Brian CEO Dec 30, 2019 225
ENDV Collier Alan Brian CEO Dec 20, 2019 150
ENDV Collier Alan Brian CEO Dec 10, 2019 8
ENDV Collier Alan Brian CEO Dec 16, 2019 1
ENDV Collier Alan Brian CEO Dec 12, 2019 2
ENDV Collier Alan Brian CEO Dec 11, 2019 2
TPL HORIZON KINETICS ASSET MANAGEMENT LLC 10% Owner Jan 23, 2020 102,465
OPK FROST PHILLIP MD ET AL CEO & Chairman Jan 23, 2020 81,500
CWGL STEINBERG JOSEPH S Director Jan 23, 2020 15,112
CWGL STEINBERG JOSEPH S Director Jan 22, 2020 18,487
CWGL STEINBERG JOSEPH S Director Jan 21, 2020 18,816
CWGL Cumming John D. Director Jan 22, 2020 3,124
CWGL Cumming John D. Director Jan 21, 2020 9,655
ENDV Collier Alan Brian Ceo Dec 30, 2019 225
ENDV Collier Alan Brian Ceo Jan 02, 2020 175
AMAR CHEN STEPHEN T President,Chairman,CEO,CFO Jan 21, 2020 330
SXC SWEETNAM JAMES E Director Nov 19, 2019 24,963
TLRS Mathewson David C. Director Nov 09, 2018 50,000
TLRS Mathewson David C. Director May 08, 2018 50,000
TLRS Mathewson David C. Director Mar 25, 2019 40,000
TLRS Mathewson David C. Director Dec 06, 2018 20,000
PBF Inversora Carso, S.A. de C.V. 10% Owner Jan 22, 2020 3,762,997
PBF Inversora Carso, S.A. de C.V. 10% Owner Jan 21, 2020 2,529,932
TLRS Osterberg Steven A. President Mar 29, 2019 14,000
TLRS Osterberg Steven A. President Nov 09, 2018 15,000
TLRS Osterberg Steven A. President May 08, 2018 10,000
FROPX BATES SHILOH R Chief Investment Officer Jan 21, 2020 1,141
APTX Sherman Rachel E. Director Jan 22, 2020 10,413
PENC BERMAN RONALD J Director Jan 22, 2020 9,559
MCHX Edenbrook Capital, LLC 10% Owner Jan 22, 2020 25,823
MCHX Edenbrook Capital, LLC 10% Owner Jan 23, 2020 70,516
CMD Mann Jeffrey Z SVP, General Counsel Jan 23, 2020 50,475
BATRA GAMCO INVESTORS, INC. ET AL 10% Owner Jan 22, 2020 29,250
ASRV WISE ROBERT L Director Jan 15, 2020 692
TRN Boze Brandon B Director Jan 21, 2020 2,077,068
TRN Boze Brandon B Director Jan 17, 2020 1,756,529
TRN Boze Brandon B Director Jan 16, 2020 2,979
GLGI KRUGER WARREN F CEO & President Jan 17, 2020 4,500
SLCT HARRIS OSCAR N Director Aug 08, 2019 12,972
UBOH ROACH DAVID P Director Feb 17, 2019 2,937
XSILX Funderburk Noah Affiliated Person Jan 08, 2020 60,003
Next : Last